DW5963 Weather Reports


Display with metric or nautical units.
time (UTC)temp
F
wind
direction
speed
MPH
gust
MPH
rain 1hr
in
rain 24hr
in
rain mn
in
humidity
%
barometer
mb
20260902234533 86 360 13.0 0.0 0.00 0.00 0.00 48 1003.4
20260902233533 86 360 13.0 0.0 0.00 0.00 0.00 46 1003.6
20260902233037 87 360 13.0 0.0 0.00 0.00 0.00 45 1003.6
20260902232533 87 360 12.0 0.0 0.00 0.00 0.00 46 1003.7
20260902232032 87 360 12.0 0.0 0.00 0.00 0.00 46 1003.6
20260902231536 87 360 12.0 0.0 0.00 0.00 0.00 46 1003.7
20260902231034 87 360 12.0 0.0 0.00 0.00 0.00 46 1003.8
20260902230531 86 360 12.0 0.0 0.00 0.00 0.00 47 1003.8
20260902230031 85 360 12.0 0.0 0.00 0.00 0.00 46 1003.8
20260902225530 87 360 13.0 0.0 0.00 0.00 0.00 44 1003.8
20260902225031 87 360 14.0 0.0 0.00 0.00 0.00 44 1003.7
20260902224530 86 360 14.0 0.0 0.00 0.00 0.00 46 1003.7
20260902223530 87 360 13.0 0.0 0.00 0.00 0.00 43 1003.7
20260902223030 87 360 13.0 0.0 0.00 0.00 0.00 45 1003.7
20260902222530 86 360 13.0 0.0 0.00 0.00 0.00 46 1003.8
20260902222029 86 360 13.0 0.0 0.00 0.00 0.00 46 1003.9
20260902221528 86 360 13.0 0.0 0.00 0.00 0.00 46 1003.8
20260902221028 86 360 13.0 0.0 0.00 0.00 0.00 45 1004.0
20260902220527 87 360 13.0 0.0 0.00 0.00 0.00 45 1003.9
20260902220030 86 360 12.0 0.0 0.00 0.00 0.00 46 1004.0
20260902215526 86 360 12.0 0.0 0.00 0.00 0.00 45 1004.0
20260902215025 86 360 13.0 0.0 0.00 0.00 0.00 46 1004.1
20260902214524 86 360 12.0 0.0 0.00 0.00 0.00 46 1004.3
20260902213523 85 360 11.0 0.0 0.00 0.00 0.00 47 1004.3
20260902213023 85 360 12.0 0.0 0.00 0.00 0.00 47 1004.3
20260902212524 86 360 14.0 0.0 0.00 0.00 0.00 45 1004.4
20260902212024 87 360 14.0 0.0 0.00 0.00 0.00 44 1004.5
20260902211522 88 360 13.0 0.0 0.00 0.00 0.00 45 1004.5
20260902211022 88 360 14.0 0.0 0.00 0.00 0.00 45 1004.5
20260902210522 87 360 14.0 0.0 0.00 0.00 0.00 44 1004.6
20260902210021 88 360 13.0 0.0 0.00 0.00 0.00 45 1004.6
20260902205520 88 360 12.0 0.0 0.00 0.00 0.00 44 1004.8
20260902205021 87 360 13.0 0.0 0.00 0.00 0.00 44 1004.8
20260902204535 87 360 14.0 0.0 0.00 0.00 0.00 45 1005.1
20260902203517 87 360 15.0 0.0 0.00 0.00 0.00 45 1005.1
20260902203018 87 360 15.0 0.0 0.00 0.00 0.00 44 1005.2
20260902202517 87 360 15.0 0.0 0.00 0.00 0.00 45 1005.2
20260902202016 87 360 14.0 0.0 0.00 0.00 0.00 44 1005.2
20260902201526 87 360 14.0 0.0 0.00 0.00 0.00 45 1005.3
20260902201014 87 360 13.0 0.0 0.00 0.00 0.00 45 1005.4
20260902200515 87 360 14.0 0.0 0.00 0.00 0.00 44 1005.5
20260902200013 86 360 15.0 0.0 0.00 0.00 0.00 45 1005.6
20260902195513 86 360 14.0 0.0 0.00 0.00 0.00 45 1005.7
20260902195011 86 360 14.0 0.0 0.00 0.00 0.00 44 1005.7
20260902194511 86 360 13.0 0.0 0.00 0.00 0.00 45 1005.7
20260902193511 86 360 14.0 0.0 0.00 0.00 0.00 43 1005.6
20260902193011 86 360 15.0 0.0 0.00 0.00 0.00 44 1005.7
20260902192511 86 360 14.0 0.0 0.00 0.00 0.00 44 1005.8
20260902192010 86 360 13.0 0.0 0.00 0.00 0.00 44 1005.9
20260902191515 86 360 13.0 0.0 0.00 0.00 0.00 45 1005.9
20260902191011 85 360 13.0 0.0 0.00 0.00 0.00 46 1006.0
20260902190507 85 360 13.0 0.0 0.00 0.00 0.00 46 1006.3
20260902190005 85 360 14.0 0.0 0.00 0.00 0.00 46 1006.3
20260902185505 85 360 14.0 0.0 0.00 0.00 0.00 46 1006.4
20260902185003 85 360 14.0 0.0 0.00 0.00 0.00 47 1006.4
20260902184504 84 360 14.0 0.0 0.00 0.00 0.00 47 1006.5
20260902183503 85 360 14.0 0.0 0.00 0.00 0.00 47 1006.7
20260902183002 84 360 14.0 0.0 0.00 0.00 0.00 48 1006.7
20260902182503 84 360 14.0 0.0 0.00 0.00 0.00 48 1006.9
20260902182100 84 360 14.0 0.0 0.00 0.00 0.00 49 1006.9
20260902181613 83 360 14.0 0.0 0.00 0.00 0.00 49 1006.9
20260902181059 83 124 15.0 0.0 0.00 0.00 0.00 49 1007.1
20260902180557 83 109 15.0 0.0 0.00 0.00 0.00 50 1007.2
20260902180100 83 360 16.0 0.0 0.00 0.00 0.00 50 1007.2
20260902175556 82 360 16.0 0.0 0.00 0.00 0.00 52 1007.2
20260902175054 82 119 15.0 0.0 0.00 0.00 0.00 52 1007.3
20260902174554 81 360 14.0 0.0 0.00 0.00 0.00 53 1007.4
20260902174153 81 124 14.0 0.0 0.00 0.00 0.00 53 1007.6
20260902173552 81 360 14.0 0.0 0.00 0.00 0.00 53 1007.6
20260902173051 81 360 14.0 0.0 0.00 0.00 0.00 54 1007.7
20260902172553 80 360 14.0 0.0 0.00 0.00 0.00 54 1007.8
20260902172049 80 360 13.0 0.0 0.00 0.00 0.00 54 1007.8
20260902171556 80 150 12.0 0.0 0.00 0.00 0.00 55 1008.0
20260902171047 79 360 12.0 0.0 0.00 0.00 0.00 56 1008.0
20260902170545 79 105 12.0 0.0 0.00 0.00 0.00 55 1008.2
20260902170045 79 360 12.0 0.0 0.00 0.00 0.00 55 1008.2
20260902165545 79 360 12.0 0.0 0.00 0.00 0.00 55 1008.3
20260902165043 78 360 12.0 0.0 0.00 0.00 0.00 56 1008.3
20260902164551 78 360 12.0 0.0 0.00 0.00 0.00 56 1008.3
20260902164142 77 360 13.0 0.0 0.00 0.00 0.00 56 1008.4
20260902163542 77 360 13.0 0.0 0.00 0.00 0.00 56 1008.4
20260902163046 76 360 13.0 0.0 0.00 0.00 0.00 56 1008.5
20260902162540 76 360 12.0 0.0 0.00 0.00 0.00 56 1008.5
20260902162039 76 360 12.0 0.0 0.00 0.00 0.00 55 1008.5
20260902161538 75 360 12.0 0.0 0.00 0.00 0.00 55 1008.6
20260902161040 75 360 11.0 0.0 0.00 0.00 0.00 55 1008.6
20260902160538 75 360 11.0 0.0 0.00 0.00 0.00 56 1008.5
20260902160036 75 360 12.0 0.0 0.00 0.00 0.00 57 1008.7
20260902155534 74 360 12.0 0.0 0.00 0.00 0.00 57 1008.7
20260902155033 74 360 12.0 0.0 0.00 0.00 0.00 58 1008.8
20260902154538 74 360 11.0 0.0 0.00 0.00 0.00 58 1008.8
20260902154132 73 174 11.0 0.0 0.00 0.00 0.00 59 1008.8
20260902153532 73 360 11.0 0.0 0.00 0.00 0.00 59 1008.9
20260902153037 73 360 11.0 0.0 0.00 0.00 0.00 59 1008.9
20260902152529 72 360 11.0 0.0 0.00 0.00 0.00 60 1008.8
20260902152028 72 161 11.0 0.0 0.00 0.00 0.00 60 1009.0
20260902151527 71 150 12.0 0.0 0.00 0.00 0.00 60 1009.0
20260902151025 71 360 12.0 0.0 0.00 0.00 0.00 61 1009.2
20260902150528 70 360 11.0 0.0 0.00 0.00 0.00 61 1009.1
20260902150026 70 360 10.0 0.0 0.00 0.00 0.00 61 1009.3
20260902145522 69 360 10.0 0.0 0.00 0.00 0.00 63 1009.2
20260902145021 68 360 11.0 0.0 0.00 0.00 0.00 64 1009.3
20260902144519 68 360 11.0 0.0 0.00 0.00 0.00 64 1009.3
20260902144119 66 360 11.0 0.0 0.00 0.00 0.00 64 1009.3
20260902143518 66 360 11.0 0.0 0.00 0.00 0.00 65 1009.3
20260902143020 66 360 10.0 0.0 0.00 0.00 0.00 65 1009.4
20260902142516 65 360 8.0 0.0 0.00 0.00 0.00 67 1009.5
20260902142015 64 360 8.0 0.0 0.00 0.00 0.00 68 1009.5
20260902141522 64 360 8.0 0.0 0.00 0.00 0.00 69 1009.7
20260902141012 63 360 7.0 0.0 0.00 0.00 0.00 70 1009.6
20260902140511 63 360 7.0 0.0 0.00 0.00 0.00 70 1009.7
20260902140011 62 360 6.0 0.0 0.00 0.00 0.00 72 1009.7
20260902135507 62 360 6.0 0.0 0.00 0.00 0.00 73 1009.7
20260902135007 62 360 6.0 0.0 0.00 0.00 0.00 73 1009.8
20260902134506 61 360 5.0 0.0 0.00 0.00 0.00 74 1009.8
20260902134105 60 360 4.0 0.0 0.00 0.00 0.00 76 1009.7
20260902133505 60 360 4.0 0.0 0.00 0.00 0.00 76 1009.7
20260902133006 59 360 4.0 0.0 0.00 0.00 0.00 78 1009.7
20260902132509 59 360 3.0 0.0 0.00 0.00 0.00 80 1009.7
20260902132105 58 360 2.0 0.0 0.00 0.00 0.00 81 1009.8
20260902131505 57 360 2.0 0.0 0.00 0.00 0.00 81 1009.7
20260902131005 57 360 3.0 0.0 0.00 0.00 0.00 81 1009.8
20260902130505 56 360 2.0 0.0 0.00 0.00 0.00 82 1009.7
20260902130004 56 360 1.0 0.0 0.00 0.00 0.00 82 1009.8
20260902125506 55 360 2.0 0.0 0.00 0.00 0.00 82 1009.7
20260902125004 55 360 2.0 0.0 0.00 0.00 0.00 81 1009.6
20260902124514 56 360 2.0 0.0 0.00 0.00 0.00 81 1009.6
20260902124103 56 360 1.0 0.0 0.00 0.00 0.00 81 1009.8
20260902123503 56 360 1.0 0.0 0.00 0.00 0.00 80 1009.7
20260902123003 56 360 1.0 0.0 0.00 0.00 0.00 81 1009.7
20260902122503 56 360 2.0 0.0 0.00 0.00 0.00 81 1009.7
20260902122004 56 360 3.0 0.0 0.00 0.00 0.00 82 1009.6
20260902121502 56 360 3.0 0.0 0.00 0.00 0.00 83 1009.6
20260902121002 55 360 2.0 0.0 0.00 0.00 0.00 83 1009.6
20260902120502 55 360 0.0 0.0 0.00 0.00 0.00 84 1009.6
20260902120005 54 360 0.0 0.0 0.00 0.00 0.00 83 1009.4
20260902115501 54 360 1.0 0.0 0.00 0.00 0.00 83 1009.5
20260902115001 54 360 2.0 0.0 0.00 0.00 0.00 84 1009.6
20260902114600 54 360 2.0 0.0 0.00 0.00 0.00 83 1009.6
20260902114100 53 360 1.0 0.0 0.00 0.00 0.00 83 1009.7
20260902113559 53 360 1.0 0.0 0.00 0.00 0.00 83 1009.7
20260902113059 53 360 0.0 0.0 0.00 0.00 0.00 81 1009.8
20260902112558 53 360 0.0 0.0 0.00 0.00 0.00 81 1009.9
20260902112058 53 360 0.0 0.0 0.00 0.00 0.00 81 1009.8
20260902111559 53 360 0.0 0.0 0.00 0.00 0.00 81 1009.9
20260902111056 54 360 0.0 0.0 0.00 0.00 0.00 80 1010.0
20260902110555 54 360 0.0 0.0 0.00 0.00 0.00 79 1010.0
20260902110055 54 360 0.0 0.0 0.00 0.00 0.00 79 1010.0
20260902105554 55 360 0.0 0.0 0.00 0.00 0.00 79 1009.9
20260902105053 55 360 0.0 0.0 0.00 0.00 0.00 79 1010.0
20260902104553 55 360 0.0 0.0 0.00 0.00 0.00 79 1010.0
20260902104054 55 360 0.0 0.0 0.00 0.00 0.00 79 1010.1
20260902103552 55 360 0.0 0.0 0.00 0.00 0.00 79 1010.1
20260902103059 55 360 0.0 0.0 0.00 0.00 0.00 78 1010.0
20260902102551 55 360 0.0 0.0 0.00 0.00 0.00 77 1010.1
20260902102050 55 360 0.0 0.0 0.00 0.00 0.00 76 1010.1
20260902101555 56 360 1.0 0.0 0.00 0.00 0.00 76 1010.1
20260902101048 56 360 1.0 0.0 0.00 0.00 0.00 75 1010.1
20260902100547 57 360 1.0 0.0 0.00 0.00 0.00 73 1010.1
20260902100047 58 360 2.0 0.0 0.00 0.00 0.00 73 1010.0
20260902095546 58 360 3.0 0.0 0.00 0.00 0.00 74 1010.0
20260902095046 58 360 2.0 0.0 0.00 0.00 0.00 74 1010.2
20260902094546 58 360 3.0 0.0 0.00 0.00 0.00 74 1010.2
20260902094046 58 360 3.0 0.0 0.00 0.00 0.00 76 1010.2
20260902093545 58 360 3.0 0.0 0.00 0.00 0.00 76 1010.2
20260902093102 57 360 1.0 0.0 0.00 0.00 0.00 76 1010.1
20260902092545 57 360 0.0 0.0 0.00 0.00 0.00 73 1010.1
20260902092048 57 360 0.0 0.0 0.00 0.00 0.00 72 1010.3
20260902091551 58 360 0.0 0.0 0.00 0.00 0.00 72 1010.1
20260902091041 58 360 0.0 0.0 0.00 0.00 0.00 71 1010.1
20260902090540 59 360 0.0 0.0 0.00 0.00 0.00 71 1010.1
20260902090043 59 360 0.0 0.0 0.00 0.00 0.00 71 1010.1
20260902085539 59 360 0.0 0.0 0.00 0.00 0.00 71 1010.1
20260902085039 59 360 0.0 0.0 0.00 0.00 0.00 71 1010.2
20260902084548 59 360 0.0 0.0 0.00 0.00 0.00 70 1010.2
20260902084038 60 360 1.0 0.0 0.00 0.00 0.00 70 1010.3
20260902083538 60 360 1.0 0.0 0.00 0.00 0.00 70 1010.3
20260902083048 60 360 1.0 0.0 0.00 0.00 0.00 71 1010.3
20260902082537 59 360 1.0 0.0 0.00 0.00 0.00 72 1010.4
20260902082037 59 360 1.0 0.0 0.00 0.00 0.00 71 1010.4
20260902081540 59 360 1.0 0.0 0.00 0.00 0.00 71 1010.4
20260902081036 59 360 1.0 0.0 0.00 0.00 0.00 70 1010.4
20260902080535 60 360 2.0 0.0 0.00 0.00 0.00 70 1010.4
20260902080035 60 360 1.0 0.0 0.00 0.00 0.00 70 1010.5
20260902075533 60 360 0.0 0.0 0.00 0.00 0.00 69 1010.5
20260902075034 60 360 1.0 0.0 0.00 0.00 0.00 69 1010.5
20260902074534 60 360 1.0 0.0 0.00 0.00 0.00 69 1010.4
20260902074032 60 360 0.0 0.0 0.00 0.00 0.00 67 1010.5
20260902073532 60 360 1.0 0.0 0.00 0.00 0.00 67 1010.5
20260902073031 61 360 2.0 0.0 0.00 0.00 0.00 67 1010.5
20260902072531 61 360 2.0 0.0 0.00 0.00 0.00 67 1010.4
20260902072031 61 360 2.0 0.0 0.00 0.00 0.00 67 1010.5
20260902071535 61 360 1.0 0.0 0.00 0.00 0.00 67 1010.5
20260902071031 61 360 0.0 0.0 0.00 0.00 0.00 67 1010.5
20260902070531 62 360 0.0 0.0 0.00 0.00 0.00 66 1010.5
20260902070030 62 360 0.0 0.0 0.00 0.00 0.00 65 1010.5
20260902065531 62 360 1.0 0.0 0.00 0.00 0.00 65 1010.4
20260902065030 62 360 2.0 0.0 0.00 0.00 0.00 64 1010.5
20260902064531 63 360 2.0 0.0 0.00 0.00 0.00 64 1010.5
20260902064030 63 360 3.0 0.0 0.00 0.00 0.00 63 1010.6
20260902063532 63 360 3.0 0.0 0.00 0.00 0.00 63 1010.4
20260902063032 63 360 3.0 0.0 0.00 0.00 0.00 63 1010.5
20260902062530 63 360 2.0 0.0 0.00 0.00 0.00 63 1010.5
20260902062030 64 360 3.0 0.0 0.00 0.00 0.00 62 1010.5
20260902061542 64 360 3.0 0.0 0.00 0.00 0.00 61 1010.5
20260902061030 64 360 4.0 0.0 0.00 0.00 0.00 61 1010.5
20260902060530 65 360 3.0 0.0 0.00 0.00 0.00 61 1010.6
20260902060029 65 360 3.0 0.0 0.00 0.00 0.00 61 1010.6
20260902055532 65 360 3.0 0.0 0.00 0.00 0.00 61 1010.6
20260902055030 65 360 3.0 0.0 0.00 0.00 0.00 61 1010.7
20260902054533 65 360 2.0 0.0 0.00 0.00 0.00 61 1010.6
20260902054029 65 360 2.0 0.0 0.00 0.00 0.00 60 1010.7
20260902053531 65 360 2.0 0.0 0.00 0.00 0.00 60 1010.7
20260902053030 65 360 3.0 0.0 0.00 0.00 0.00 60 1010.7
20260902052533 65 360 3.0 0.0 0.00 0.00 0.00 61 1010.7
20260902052030 65 360 3.0 0.0 0.00 0.00 0.00 61 1010.7
20260902051530 65 360 2.0 0.0 0.00 0.00 0.00 61 1010.8
20260902051030 65 360 2.0 0.0 0.00 0.00 0.00 60 1010.8
20260902050533 65 360 1.0 0.0 0.00 0.00 0.00 60 1010.8
20260902050032 65 360 2.0 0.0 0.00 0.00 0.00 59 1010.8
20260902045529 66 360 3.0 0.0 0.00 0.00 0.00 59 1010.8
20260902045029 66 360 2.0 0.0 0.00 0.00 0.00 59 1010.8
20260902044529 66 360 2.0 0.0 0.00 0.00 0.00 58 1010.8
20260902044030 67 360 2.0 0.0 0.00 0.00 0.00 57 1010.8
20260902043529 67 360 2.0 0.0 0.00 0.00 0.00 57 1010.8
20260902043029 67 360 3.0 0.0 0.00 0.00 0.00 57 1010.8
20260902042529 67 360 3.0 0.0 0.00 0.00 0.00 57 1010.9
20260902042031 67 360 3.0 0.0 0.00 0.00 0.00 58 1010.9
20260902041529 67 360 4.0 0.0 0.00 0.00 0.00 58 1010.8
20260902041035 67 360 4.0 0.0 0.00 0.00 0.00 59 1010.8
20260902040528 67 360 4.0 0.0 0.00 0.00 0.00 59 1010.7
20260902040028 67 360 5.0 0.0 0.00 0.00 0.00 59 1010.8
20260902035527 67 360 5.0 0.0 0.00 0.00 0.00 59 1010.7
20260902035028 67 360 5.0 0.0 0.00 0.00 0.00 59 1010.7
20260902034531 67 360 5.0 0.0 0.00 0.00 0.00 59 1010.8
20260902034027 67 360 5.0 0.0 0.00 0.00 0.00 59 1010.7
20260902033528 67 360 5.0 0.0 0.00 0.00 0.00 59 1010.7
20260902033028 67 360 5.0 0.0 0.00 0.00 0.00 58 1010.7
20260902032530 68 360 5.0 0.0 0.00 0.00 0.00 58 1010.7
20260902032028 68 360 6.0 0.0 0.00 0.00 0.00 57 1010.6
20260902031528 68 360 6.0 0.0 0.00 0.00 0.00 57 1010.6
20260902031029 69 360 6.0 0.0 0.00 0.00 0.00 56 1010.6
20260902030530 69 360 6.0 0.0 0.00 0.00 0.00 56 1010.6
20260902030028 69 360 6.0 0.0 0.00 0.00 0.00 56 1010.6
20260902025528 69 360 6.0 0.0 0.00 0.00 0.00 56 1010.5
20260902025028 69 360 6.0 0.0 0.00 0.00 0.00 56 1010.6
20260902024527 69 360 6.0 0.0 0.00 0.00 0.00 56 1010.7
20260902024027 69 360 7.0 0.0 0.00 0.00 0.00 55 1010.6
20260902023526 69 360 7.0 0.0 0.00 0.00 0.00 55 1010.5
20260902023027 69 360 7.0 0.0 0.00 0.00 0.00 54 1010.5
20260902022527 69 360 7.0 0.0 0.00 0.00 0.00 54 1010.5
20260902022029 70 360 7.0 0.0 0.00 0.00 0.00 53 1010.5
20260902021543 70 360 7.0 0.0 0.00 0.00 0.00 53 1010.5
20260902021029 70 360 7.0 0.0 0.00 0.00 0.00 52 1010.5
20260902020527 70 360 7.0 0.0 0.00 0.00 0.00 52 1010.5
20260902020025 71 360 8.0 0.0 0.00 0.00 0.00 51 1010.3
20260902015526 71 360 8.0 0.0 0.00 0.00 0.00 50 1010.4
20260902015026 71 360 8.0 0.0 0.00 0.00 0.00 49 1010.4
20260902014536 72 360 8.0 0.0 0.00 0.00 0.00 48 1010.3
20260902014026 72 360 8.0 0.0 0.00 0.00 0.00 47 1010.4
20260902013525 72 360 8.0 0.0 0.00 0.00 0.00 47 1010.4
20260902013026 72 360 8.0 0.0 0.00 0.00 0.00 46 1010.4
20260902012525 73 360 8.0 0.0 0.00 0.00 0.00 45 1010.5
20260902012025 73 360 9.0 0.0 0.00 0.00 0.00 45 1010.4
20260902011528 73 360 8.0 0.0 0.00 0.00 0.00 44 1010.4
20260902011025 73 360 8.0 0.0 0.00 0.00 0.00 45 1010.4
20260902010524 74 360 8.0 0.0 0.00 0.00 0.00 45 1010.4
20260902010024 74 82 9.0 0.0 0.00 0.00 0.00 44 1010.5
20260902005524 74 360 9.0 0.0 0.00 0.00 0.00 43 1010.5
20260902005024 75 360 9.0 0.0 0.00 0.00 0.00 42 1010.5
20260902004527 75 360 8.0 0.0 0.00 0.00 0.00 42 1010.5
20260902004022 75 360 8.0 0.0 0.00 0.00 0.00 42 1010.5
20260902003523 75 360 8.0 0.0 0.00 0.00 0.00 42 1010.5
20260902003028 75 82 9.0 0.0 0.00 0.00 0.00 42 1010.6
20260902002522 75 82 9.0 0.0 0.00 0.00 0.00 41 1010.6
20260902002022 76 78 8.0 0.0 0.00 0.00 0.00 41 1010.5
20260902001522 76 73 8.0 0.0 0.00 0.00 0.00 41 1010.6
20260902001025 76 360 8.0 0.0 0.00 0.00 0.00 41 1010.5
20260902000526 76 360 8.0 0.0 0.00 0.00 0.00 41 1010.6
20260902000022 76 360 8.0 0.0 0.00 0.00 0.00 41 1010.6
20260901235521 76 360 9.0 0.0 0.00 0.00 0.00 40 1010.6
20260901235021 77 360 9.0 0.0 0.00 0.00 0.00 39 1010.6